Showing default

SKYSAT C2, 41773

Orbit data source: Space-Track

SKYSAT C2, 41773 is a payload satellite owned by Terra Bella (US) in SSO that was launched on Fri, 16 Sep 2016 UTC via a VEGA launch vehicle from the French Guiana (FRGUI). Payload-class satellites include a variety of spacecraft equipped with specific instruments for various scientific and technological missions. These include communications satellites like Starlink; space stations such as the ISS; scientific satellites like the Hubble; Earth observation satellites from companies like Planet Labs, Umbra, and HawkEye 360; GPS; miniature CubeSats for education and research; and military/defense satellites.

Loading next visibility...
Identifier
41773, 2016-058D
Orbit
SSO
Last TLE update
10 hours ago
Origin
Manufacturer
SS/Loral (MDA)
Mission
Operational Commercial Imaging
Bus & Motor
SKYSAT-GEN2, Unknown motor
Mass
110 kg wet, 110 kg dry
Launch date (UTC)
2016-09-16 (9 years ago)
Launch vehicle
VEGA
Launch site
French Guiana (FRGUI)
Object type
Payload
Rocket body
Debris
Shape & HBR
Box, 1.2 m
Radar Cross Section
0.888 m², Medium (>0.1 m² and < 1m²)

Expand to show TLE details & history

TLE from 10 hours ago
0 SKYSAT C2
1 41773U 16058D   25191.59639462  .00005186  00000-0  16374-3 0  9998
2 41773  97.0520 222.9889 0003882 174.5271 185.6015 15.33243122492563
Epoch: 2025-07-10T14:18Z
TLE epoch observation values (Epoch: 2025-07-10T14:18:48.495Z)
Latitude
-0.00004°
Longitude
79.52644°
Altitude
471.907 km
Speed
7.629 km/s
True Right ascension
14h 51m 57s
True Declination
0° 00' 00"
Sunlit
Object was in daylight at epoch
Visualization orbit readout
Latitude
-44.13673°
Longitude
-106.91698°
Altitude
481.561 km
Speed
7.624 km/s
Apparent Right ascension
01h 41m 58s
Apparent Declination
-42° 27' 24"
Sunlit
Object is in daylight
Visualization observer readout
Local Sidereal Time
12:57:28
Azimuth
249.502° W
Elevation
-81.258°
Doppler factor
1
Orbital elements
Apogee altitude
465.733 km
Perigee altitude
460.421 km
Semi-major axis
6,841.214 km
Eccentricity
0.00039
Inclination
97.052°
RAAN
222.9889°
Arg. of periapsis
174.5271°
True anomaly
Unknown
Mean anomaly
185.6015°
Eccentric anomaly
Unknown
Mean motion
3.83569 °/min
Orbital period
93.86 mins
BSTAR
0.00016374
Loading maneuver chart data...
Loading SW <> Apogee altitude chart data...
Loading historical data...
Loading historical data...
Loading historical data...
Loading historical data...
Loading historical data...
Loading historical data...
Loading historical data...

SKYSAT C2 Visibility forecast

Observer location: undefined°, undefined°

Span
Click to sort rows by Start time (UTC) header in descending order
Start Az.
Max El. time (UTC)
Max El. Az.
Max El.
End time (UTC)
End Az.
5 mins2025-07-11 01:25:11.671Z120.066° SE2025-07-11 01:28:11.671Z59.888° ENE19.366°2025-07-11 01:30:11.671Z22.976° NE
4 mins2025-07-11 14:24:11.671Z65.691° ENE2025-07-11 14:25:11.671Z95.095° ESE24.529°2025-07-11 14:28:11.671Z156.352° SSE
|